Location: Auckland
(36.8670°S, 174.7670°E)
Time: 13:09:27
(UTC+12:00)

Tiros 1 despin weight - Pass Details

Date: 20 July 2019
Orbit: 594 x 642 km, 48.2° (Epoch: 20 August)

Event Time Altitude Azimuth Distance (km) Brightness Sun altitude
Rises 01:40:17 0° 280° (W) 2,839 - -67.4°
Reaches altitude 10° 01:42:42 10° 271° (W) 1,942 - -67.1°
Maximum altitude 01:46:49 36° 204° (SSW) 970 - -66.4°
Drops below altitude 10° 01:51:00 10° 136° (SE) 1,967 - -65.7°
Sets 01:53:28 0° 127° (SE) 2,881 - -65.3°
